Regional Weather Roundup
Issued by NWS

Home | Current Version | Previous Version | Graphics & Text | Print | Product List | Glossary On
Versions: 1 2 3 4 5 6 7 8 9 10 11 12 13 14 15 16 17 18 19 20 21 22 23 24 25 26 27 28 29 30 31 32 33 34 35 36 37 38 39 40 41 42 43 44 45 46 47 48 49 50
000
ASUS44 KMEG 242300
RWRTN
TENNESSEE HOURLY STATE WEATHER ROUNDUP
NATIONAL WEATHER SERVICE MEMPHIS TN
500 PM CST WED DEC 24 2014

TNZ002-004-019-021-049-052-054-088>092-250000-
WEST TENNESSEE

CITY           SKY/WX    TMP DP  RH WIND       PRES   REMARKS
MEMPHIS INTL   CLOUDY    44  36  73 W9        29.86R
NWS MEMPHIS      N/A     42 N/A N/A MISG        N/A
JACKSON        CLOUDY    43  34  70 W9        29.83R
DYERSBURG      CLOUDY    43  27  52 W8        29.84R
UNION CITY     MOCLDY    39  36  87 W7        29.79R WCI  34
PARIS          CLOUDY    39  36  87 SW9       29.79R WCI  33
LEXINGTON      CLOUDY    43  37  81 W9        29.80R
SAVANNAH       CLOUDY    43  37  81 W7        29.84R
$$

TNZ008-025-027-028-033-062-065-066-250000-
NORTH MIDDLE TENNESSEE

CITY           SKY/WX    TMP DP  RH WIND       PRES   REMARKS
NASHVILLE      CLOUDY    46  40  79 VRB5      29.77R
CLARKSVILLE    LGT RAIN  44  37  76 W10       29.76R
COOKEVILLE     CLOUDY    43  43 100 SW3       29.74R
CROSSVILLE     CLOUDY    42  38  85 W10G26    29.71R
$$

TNZ061-075-076-078-094-096-097-250000-
SOUTH MIDDLE TENNESSEE

CITY           SKY/WX    TMP DP  RH WIND       PRES   REMARKS
FAYETTEVILLE   CLOUDY    45  41  87 MISG      29.78R
TULLAHOMA      CLOUDY    43  41  93 SW6       29.78R
WINCHESTER     CLOUDY    45  43  93 W5        29.79R
SHELBYVILLE    CLOUDY    46  43  87 SW6       29.78R
$$

TNZ017-018-042-046-047-250000-
NORTHEAST TENNESSEE

CITY           SKY/WX    TMP DP  RH WIND       PRES   REMARKS
TRI CITIES     CLOUDY    64  52  64 S14G24    29.53R
ELIZABETHTON   CLEAR     63  52  67 W8        29.56R
$$

TNZ012-013-036-069-073-074-250000-
CENTRAL EAST TENNESSEE

CITY           SKY/WX    TMP DP  RH WIND       PRES   REMARKS
KNOXVILLE      RAIN      49  45  86 SW15      29.70R FOG
OAK RIDGE      CLOUDY    48  42  80 SW9G20    29.69R
GATLINBURG     CLOUDY    48  46  93 W16       29.67R
$$

TNZ083-085-099-250000-
SOUTHEAST TENNESSEE

CITY           SKY/WX    TMP DP  RH WIND       PRES   REMARKS
CHATTANOOGA    CLOUDY    49  42  77 W9        29.76R
$$

SKY/WX REPORTED AS FAIR MEANS FEW OR NO CLOUDS BELOW
12 THOUSAND FEET.




USA.gov is the U.S. government's official web portal to all federal, state and local government web resources and services.